owner,sensor,date,latitude,longitude,vertical_datum,wind_speed,wind_to_direction,wind_speed_of_gust,qcFlag 
TCOON,ioos:station:TCOON:518:1,2019-09-01T00:24:00Z,29.5150,-94.5133,0.0,1.3,155.0,2.0,'11111222,11111222,11111222' 
TCOON,ioos:station:TCOON:518:1,2019-09-01T01:24:00Z,29.5150,-94.5133,0.0,1.8,88.0,2.5,'11111222,11111222,11111222' 
TCOON,ioos:station:TCOON:518:1,2019-09-01T02:24:00Z,29.5150,-94.5133,0.0,0.1,47.0,0.2,'11111222,11111222,11111222' 
TCOON,ioos:station:TCOON:518:1,2019-09-01T03:24:00Z,29.5150,-94.5133,0.0,0.0,44.0,0.2,'11111222,11111222,11111222' 
TCOON,ioos:station:TCOON:518:1,2019-09-01T04:24:00Z,29.5150,-94.5133,0.0,0.1,47.0,0.6,'11111222,11111222,11111222' 
TCOON,ioos:station:TCOON:518:1,2019-09-01T05:24:00Z,29.5150,-94.5133,0.0,0.6,48.0,1.1,'11111222,11111222,11111222' 
TCOON,ioos:station:TCOON:518:1,2019-09-01T06:24:00Z,29.5150,-94.5133,0.0,0.4,52.0,0.5,'11111222,11111222,11111222' 
TCOON,ioos:station:TCOON:518:1,2019-09-01T07:24:00Z,29.5150,-94.5133,0.0,2.6,37.0,2.7,'11111222,11111222,11111222' 
TCOON,ioos:station:TCOON:518:1,2019-09-01T08:24:00Z,29.5150,-94.5133,0.0,2.9,34.0,3.1,'11111222,11111222,11111222' 
TCOON,ioos:station:TCOON:518:1,2019-09-01T09:24:00Z,29.5150,-94.5133,0.0,3.5,38.0,4.2,'11111222,11111222,11111222' 
TCOON,ioos:station:TCOON:518:1,2019-09-01T10:24:00Z,29.5150,-94.5133,0.0,4.2,39.0,4.9,'11111222,11111222,11111222' 
TCOON,ioos:station:TCOON:518:1,2019-09-01T11:24:00Z,29.5150,-94.5133,0.0,4.8,37.0,5.6,'11111222,11111222,11111222' 
TCOON,ioos:station:TCOON:518:1,2019-09-01T12:24:00Z,29.5150,-94.5133,0.0,6.0,15.0,6.9,'11111222,11111222,11111222' 
TCOON,ioos:station:TCOON:518:1,2019-09-01T13:24:00Z,29.5150,-94.5133,0.0,4.2,28.0,5.1,'11111222,11111222,11111222' 
TCOON,ioos:station:TCOON:518:1,2019-09-01T14:24:00Z,29.5150,-94.5133,0.0,3.8,38.0,4.6,'11111222,11111222,11111222' 
TCOON,ioos:station:TCOON:518:1,2019-09-01T15:24:00Z,29.5150,-94.5133,0.0,3.5,42.0,4.7,'11111222,11111222,11111222' 
TCOON,ioos:station:TCOON:518:1,2019-09-01T16:24:00Z,29.5150,-94.5133,0.0,4.6,42.0,5.3,'11111222,11111222,11111222' 
TCOON,ioos:station:TCOON:518:1,2019-09-01T17:24:00Z,29.5150,-94.5133,0.0,3.7,45.0,5.0,'11111222,11111222,11111222' 
TCOON,ioos:station:TCOON:518:1,2019-09-01T18:24:00Z,29.5150,-94.5133,0.0,3.4,55.0,4.6,'11111222,11111222,11111222' 
TCOON,ioos:station:TCOON:518:1,2019-09-01T19:24:00Z,29.5150,-94.5133,0.0,4.2,123.0,8.7,'11111222,11111222,11111222' 
TCOON,ioos:station:TCOON:518:1,2019-09-01T20:24:00Z,29.5150,-94.5133,0.0,5.0,126.0,5.8,'11111222,11111222,11111222' 
TCOON,ioos:station:TCOON:518:1,2019-09-01T21:24:00Z,29.5150,-94.5133,0.0,5.4,134.0,6.8,'11111222,11111222,11111222' 
TCOON,ioos:station:TCOON:518:1,2019-09-01T22:24:00Z,29.5150,-94.5133,0.0,4.9,138.0,5.5,'11111222,11111222,11111222' 
TCOON,ioos:station:TCOON:518:1,2019-09-01T23:24:00Z,29.5150,-94.5133,0.0,4.4,135.0,5.0,'11111222,11111222,11111222' 
TCOON,ioos:station:TCOON:518:1,2019-09-02T00:24:00Z,29.5150,-94.5133,0.0,3.2,129.0,3.9,'11111222,11111222,11111222' 
TCOON,ioos:station:TCOON:518:1,2019-09-02T01:24:00Z,29.5150,-94.5133,0.0,2.9,132.0,3.3,'11111222,11111222,11111222' 
TCOON,ioos:station:TCOON:518:1,2019-09-02T02:24:00Z,29.5150,-94.5133,0.0,5.4,137.0,6.1,'11111222,11111222,11111222' 
TCOON,ioos:station:TCOON:518:1,2019-09-02T03:24:00Z,29.5150,-94.5133,0.0,4.9,126.0,6.0,'11111222,11111222,11111222' 
TCOON,ioos:station:TCOON:518:1,2019-09-02T04:24:00Z,29.5150,-94.5133,0.0,3.8,141.0,4.8,'11111222,11111222,11111222' 
TCOON,ioos:station:TCOON:518:1,2019-09-02T05:24:00Z,29.5150,-94.5133,0.0,4.6,147.0,5.1,'11111222,11111222,11111222' 
TCOON,ioos:station:TCOON:518:1,2019-09-02T06:24:00Z,29.5150,-94.5133,0.0,3.8,133.0,4.3,'11111222,11111222,11111222' 
TCOON,ioos:station:TCOON:518:1,2019-09-02T07:24:00Z,29.5150,-94.5133,0.0,3.4,142.0,3.9,'11111222,11111222,11111222' 
TCOON,ioos:station:TCOON:518:1,2019-09-02T08:24:00Z,29.5150,-94.5133,0.0,3.4,31.0,3.8,'11111222,11111222,11111222' 
TCOON,ioos:station:TCOON:518:1,2019-09-02T09:24:00Z,29.5150,-94.5133,0.0,3.3,33.0,3.9,'11111222,11111222,11111222' 
TCOON,ioos:station:TCOON:518:1,2019-09-02T10:24:00Z,29.5150,-94.5133,0.0,3.6,30.0,3.9,'11111222,11111222,11111222' 
TCOON,ioos:station:TCOON:518:1,2019-09-02T11:24:00Z,29.5150,-94.5133,0.0,4.2,45.0,4.6,'11111222,11111222,11111222' 
TCOON,ioos:station:TCOON:518:1,2019-09-02T12:24:00Z,29.5150,-94.5133,0.0,4.9,28.0,5.5,'11111222,11111222,11111222' 
TCOON,ioos:station:TCOON:518:1,2019-09-02T15:24:00Z,29.5150,-94.5133,0.0,6.0,51.0,6.7,'11111222,11111222,11111222' 
TCOON,ioos:station:TCOON:518:1,2019-09-02T16:24:00Z,29.5150,-94.5133,0.0,5.1,53.0,6.7,'11111222,11111222,11111222' 
TCOON,ioos:station:TCOON:518:1,2019-09-02T17:24:00Z,29.5150,-94.5133,0.0,5.9,78.0,7.6,'11111222,11111222,11111222' 
TCOON,ioos:station:TCOON:518:1,2019-09-02T18:24:00Z,29.5150,-94.5133,0.0,5.7,53.0,8.0,'11111222,11111222,11111222' 
TCOON,ioos:station:TCOON:518:1,2019-09-02T19:24:00Z,29.5150,-94.5133,0.0,6.5,59.0,7.7,'11111222,11111222,11111222' 
TCOON,ioos:station:TCOON:518:1,2019-09-02T20:24:00Z,29.5150,-94.5133,0.0,6.2,58.0,8.5,'11111222,11111222,11111222' 
TCOON,ioos:station:TCOON:518:1,2019-09-02T21:24:00Z,29.5150,-94.5133,0.0,5.1,62.0,8.4,'11111222,11111222,11111222' 
TCOON,ioos:station:TCOON:518:1,2019-09-02T22:30:00Z,29.5150,-94.5133,0.0,6.3,130.0,7.4,'11111222,11111222,11111222' 
TCOON,ioos:station:TCOON:518:1,2019-09-02T23:24:00Z,29.5150,-94.5133,0.0,4.3,128.0,5.4,'11111222,11111222,11111222' 
TCOON,ioos:station:TCOON:518:1,2019-09-03T00:24:00Z,29.5150,-94.5133,0.0,3.5,126.0,3.9,'11111222,11111222,11111222' 
TCOON,ioos:station:TCOON:518:1,2019-09-03T01:24:00Z,29.5150,-94.5133,0.0,1.5,93.0,2.2,'11111222,11111222,11111222' 
TCOON,ioos:station:TCOON:518:1,2019-09-03T02:24:00Z,29.5150,-94.5133,0.0,1.6,35.0,2.0,'11111222,11111222,11111222' 
TCOON,ioos:station:TCOON:518:1,2019-09-03T03:24:00Z,29.5150,-94.5133,0.0,2.6,14.0,2.9,'11111222,11111222,11111222' 
TCOON,ioos:station:TCOON:518:1,2019-09-03T04:24:00Z,29.5150,-94.5133,0.0,2.5,12.0,3.0,'11111222,11111222,11111222' 
TCOON,ioos:station:TCOON:518:1,2019-09-03T05:24:00Z,29.5150,-94.5133,0.0,2.6,39.0,3.5,'11111222,11111222,11111222' 
TCOON,ioos:station:TCOON:518:1,2019-09-03T06:24:00Z,29.5150,-94.5133,0.0,3.6,28.0,4.2,'11111222,11111222,11111222' 
TCOON,ioos:station:TCOON:518:1,2019-09-03T07:24:00Z,29.5150,-94.5133,0.0,4.4,38.0,5.6,'11111222,11111222,11111222' 
TCOON,ioos:station:TCOON:518:1,2019-09-03T08:24:00Z,29.5150,-94.5133,0.0,5.4,51.0,6.2,'11111222,11111222,11111222' 
TCOON,ioos:station:TCOON:518:1,2019-09-03T09:24:00Z,29.5150,-94.5133,0.0,4.6,69.0,5.3,'11111222,11111222,11111222' 
TCOON,ioos:station:TCOON:518:1,2019-09-03T10:24:00Z,29.5150,-94.5133,0.0,3.9,67.0,4.8,'11111222,11111222,11111222' 
TCOON,ioos:station:TCOON:518:1,2019-09-03T11:24:00Z,29.5150,-94.5133,0.0,4.0,45.0,4.3,'11111222,11111222,11111222' 
TCOON,ioos:station:TCOON:518:1,2019-09-03T12:30:00Z,29.5150,-94.5133,0.0,4.3,69.0,7.0,'11111222,11111222,11111222' 
TCOON,ioos:station:TCOON:518:1,2019-09-03T13:30:00Z,29.5150,-94.5133,0.0,4.3,44.0,4.8,'11111222,11111222,11111222' 
TCOON,ioos:station:TCOON:518:1,2019-09-03T14:30:00Z,29.5150,-94.5133,0.0,3.5,119.0,4.6,'11111222,11111222,11111222' 
TCOON,ioos:station:TCOON:518:1,2019-09-03T15:30:00Z,29.5150,-94.5133,0.0,2.4,84.0,3.4,'11111222,11111222,11111222' 
TCOON,ioos:station:TCOON:518:1,2019-09-03T16:30:00Z,29.5150,-94.5133,0.0,6.6,105.0,8.0,'11111222,11111222,11111222' 
TCOON,ioos:station:TCOON:518:1,2019-09-03T17:30:00Z,29.5150,-94.5133,0.0,6.6,106.0,8.3,'11111222,11111222,11111222' 
TCOON,ioos:station:TCOON:518:1,2019-09-03T18:30:00Z,29.5150,-94.5133,0.0,6.9,114.0,8.4,'11111222,11111222,11111222' 
TCOON,ioos:station:TCOON:518:1,2019-09-03T19:30:00Z,29.5150,-94.5133,0.0,8.1,117.0,9.6,'11111222,11111222,11111222' 
TCOON,ioos:station:TCOON:518:1,2019-09-03T20:30:00Z,29.5150,-94.5133,0.0,8.4,119.0,9.4,'11111222,11111222,11111222' 
TCOON,ioos:station:TCOON:518:1,2019-09-03T21:30:00Z,29.5150,-94.5133,0.0,6.9,125.0,8.1,'11111222,11111222,11111222' 
TCOON,ioos:station:TCOON:518:1,2019-09-03T22:30:00Z,29.5150,-94.5133,0.0,6.6,127.0,7.3,'11111222,11111222,11111222' 
TCOON,ioos:station:TCOON:518:1,2019-09-03T23:24:00Z,29.5150,-94.5133,0.0,6.6,127.0,8.2,'11111222,11111222,11111222' 
TCOON,ioos:station:TCOON:518:1,2019-09-04T00:24:00Z,29.5150,-94.5133,0.0,5.5,128.0,6.5,'11111222,11111222,11111222' 
TCOON,ioos:station:TCOON:518:1,2019-09-04T01:24:00Z,29.5150,-94.5133,0.0,5.1,138.0,5.9,'11111222,11111222,11111222' 
TCOON,ioos:station:TCOON:518:1,2019-09-04T02:24:00Z,29.5150,-94.5133,0.0,3.6,115.0,4.8,'11111222,11111222,11111222' 
TCOON,ioos:station:TCOON:518:1,2019-09-04T03:24:00Z,29.5150,-94.5133,0.0,3.6,108.0,4.9,'11111222,11111222,11111222' 
TCOON,ioos:station:TCOON:518:1,2019-09-04T04:24:00Z,29.5150,-94.5133,0.0,3.9,120.0,4.8,'11111222,11111222,11111222' 
TCOON,ioos:station:TCOON:518:1,2019-09-04T05:24:00Z,29.5150,-94.5133,0.0,4.6,116.0,6.0,'11111222,11111222,11111222' 
TCOON,ioos:station:TCOON:518:1,2019-09-04T06:24:00Z,29.5150,-94.5133,0.0,5.3,127.0,6.6,'11111222,11111222,11111222' 
TCOON,ioos:station:TCOON:518:1,2019-09-04T07:24:00Z,29.5150,-94.5133,0.0,6.1,133.0,7.0,'11111222,11111222,11111222' 
TCOON,ioos:station:TCOON:518:1,2019-09-04T08:24:00Z,29.5150,-94.5133,0.0,5.3,126.0,6.4,'11111222,11111222,11111222' 
TCOON,ioos:station:TCOON:518:1,2019-09-04T09:24:00Z,29.5150,-94.5133,0.0,3.5,45.0,4.1,'11111222,11111222,11111222' 
TCOON,ioos:station:TCOON:518:1,2019-09-04T10:24:00Z,29.5150,-94.5133,0.0,4.0,43.0,4.5,'11111222,11111222,11111222' 
TCOON,ioos:station:TCOON:518:1,2019-09-04T11:24:00Z,29.5150,-94.5133,0.0,4.6,50.0,5.1,'11111222,11111222,11111222' 
TCOON,ioos:station:TCOON:518:1,2019-09-04T12:24:00Z,29.5150,-94.5133,0.0,4.7,43.0,5.2,'11111222,11111222,11111222' 
TCOON,ioos:station:TCOON:518:1,2019-09-04T13:24:00Z,29.5150,-94.5133,0.0,4.9,42.0,5.9,'11111222,11111222,11111222' 
TCOON,ioos:station:TCOON:518:1,2019-09-04T14:30:00Z,29.5150,-94.5133,0.0,5.9,49.0,6.8,'11111222,11111222,11111222' 
TCOON,ioos:station:TCOON:518:1,2019-09-04T15:30:00Z,29.5150,-94.5133,0.0,6.1,57.0,7.1,'11111222,11111222,11111222' 
TCOON,ioos:station:TCOON:518:1,2019-09-04T16:30:00Z,29.5150,-94.5133,0.0,8.2,97.0,9.3,'11111222,11111222,11111222' 
TCOON,ioos:station:TCOON:518:1,2019-09-04T17:30:00Z,29.5150,-94.5133,0.0,7.3,92.0,8.8,'11111222,11111222,11111222' 
TCOON,ioos:station:TCOON:518:1,2019-09-04T18:30:00Z,29.5150,-94.5133,0.0,7.5,111.0,8.8,'11111222,11111222,11111222' 
TCOON,ioos:station:TCOON:518:1,2019-09-04T19:30:00Z,29.5150,-94.5133,0.0,7.5,111.0,8.5,'11111222,11111222,11111222' 
TCOON,ioos:station:TCOON:518:1,2019-09-04T20:30:00Z,29.5150,-94.5133,0.0,7.2,116.0,8.5,'11111222,11111222,11111222' 
TCOON,ioos:station:TCOON:518:1,2019-09-04T21:30:00Z,29.5150,-94.5133,0.0,7.3,126.0,8.6,'11111222,11111222,11111222' 
TCOON,ioos:station:TCOON:518:1,2019-09-04T22:30:00Z,29.5150,-94.5133,0.0,6.4,131.0,7.8,'11111222,11111222,11111222' 
TCOON,ioos:station:TCOON:518:1,2019-09-04T23:24:00Z,29.5150,-94.5133,0.0,6.3,142.0,7.3,'11111222,11111222,11111222' 
TCOON,ioos:station:TCOON:518:1,2019-09-05T00:24:00Z,29.5150,-94.5133,0.0,6.3,147.0,7.2,'11111222,11111222,11111222' 
TCOON,ioos:station:TCOON:518:1,2019-09-05T01:24:00Z,29.5150,-94.5133,0.0,4.7,154.0,5.7,'11111222,11111222,11111222' 
TCOON,ioos:station:TCOON:518:1,2019-09-05T02:24:00Z,29.5150,-94.5133,0.0,4.4,156.0,5.5,'11111222,11111222,11111222' 
TCOON,ioos:station:TCOON:518:1,2019-09-05T03:24:00Z,29.5150,-94.5133,0.0,3.8,152.0,4.7,'11111222,11111222,11111222' 
TCOON,ioos:station:TCOON:518:1,2019-09-05T04:24:00Z,29.5150,-94.5133,0.0,3.6,155.0,4.3,'11111222,11111222,11111222' 
TCOON,ioos:station:TCOON:518:1,2019-09-05T05:24:00Z,29.5150,-94.5133,0.0,2.9,164.0,3.9,'11111222,11111222,11111222' 
TCOON,ioos:station:TCOON:518:1,2019-09-05T06:24:00Z,29.5150,-94.5133,0.0,2.6,173.0,3.2,'11111222,11111222,11111222' 
TCOON,ioos:station:TCOON:518:1,2019-09-05T07:24:00Z,29.5150,-94.5133,0.0,1.1,180.0,1.7,'11111222,11111222,11111222' 
TCOON,ioos:station:TCOON:518:1,2019-09-05T08:24:00Z,29.5150,-94.5133,0.0,1.0,171.0,1.5,'11111222,11111222,11111222' 
TCOON,ioos:station:TCOON:518:1,2019-09-05T09:24:00Z,29.5150,-94.5133,0.0,0.2,143.0,0.4,'11111222,11111222,11111222' 
TCOON,ioos:station:TCOON:518:1,2019-09-05T10:24:00Z,29.5150,-94.5133,0.0,2.9,32.0,3.9,'11111222,11111222,11111222' 
TCOON,ioos:station:TCOON:518:1,2019-09-05T11:24:00Z,29.5150,-94.5133,0.0,3.5,34.0,3.9,'11111222,11111222,11111222' 
TCOON,ioos:station:TCOON:518:1,2019-09-05T12:24:00Z,29.5150,-94.5133,0.0,3.0,35.0,3.8,'11111222,11111222,11111222' 
TCOON,ioos:station:TCOON:518:1,2019-09-05T13:30:00Z,29.5150,-94.5133,0.0,3.4,39.0,3.6,'11111222,11111222,11111222' 
TCOON,ioos:station:TCOON:518:1,2019-09-05T14:30:00Z,29.5150,-94.5133,0.0,3.0,39.0,3.5,'11111222,11111222,11111222' 
TCOON,ioos:station:TCOON:518:1,2019-09-05T15:30:00Z,29.5150,-94.5133,0.0,2.0,45.0,2.5,'11111222,11111222,11111222' 
TCOON,ioos:station:TCOON:518:1,2019-09-05T16:24:00Z,29.5150,-94.5133,0.0,1.3,45.0,1.6,'11111222,11111222,11111222' 
TCOON,ioos:station:TCOON:518:1,2019-09-05T17:30:00Z,29.5150,-94.5133,0.0,2.2,149.0,2.8,'11111222,11111222,11111222' 
TCOON,ioos:station:TCOON:518:1,2019-09-05T18:30:00Z,29.5150,-94.5133,0.0,3.4,164.0,4.6,'11111222,11111222,11111222' 
TCOON,ioos:station:TCOON:518:1,2019-09-05T19:30:00Z,29.5150,-94.5133,0.0,2.3,202.0,4.0,'11111222,11111222,11111222' 
TCOON,ioos:station:TCOON:518:1,2019-09-05T20:24:00Z,29.5150,-94.5133,0.0,2.6,211.0,3.7,'11111222,11111222,11111222' 
TCOON,ioos:station:TCOON:518:1,2019-09-05T21:24:00Z,29.5150,-94.5133,0.0,2.6,200.0,4.5,'11111222,11111222,11111222' 
TCOON,ioos:station:TCOON:518:1,2019-09-05T22:24:00Z,29.5150,-94.5133,0.0,1.8,202.0,3.3,'11111222,11111222,11111222' 
TCOON,ioos:station:TCOON:518:1,2019-09-05T23:24:00Z,29.5150,-94.5133,0.0,2.8,183.0,3.7,'11111222,11111222,11111222' 
TCOON,ioos:station:TCOON:518:1,2019-09-06T00:24:00Z,29.5150,-94.5133,0.0,1.4,198.0,2.9,'11111222,11111222,11111222' 
TCOON,ioos:station:TCOON:518:1,2019-09-06T01:24:00Z,29.5150,-94.5133,0.0,2.0,200.0,3.1,'11111222,11111222,11111222' 
TCOON,ioos:station:TCOON:518:1,2019-09-06T02:24:00Z,29.5150,-94.5133,0.0,1.1,214.0,2.3,'11111222,11111222,11111222' 
TCOON,ioos:station:TCOON:518:1,2019-09-06T03:24:00Z,29.5150,-94.5133,0.0,1.0,226.0,2.6,'11111222,11111222,11111222' 
TCOON,ioos:station:TCOON:518:1,2019-09-06T04:24:00Z,29.5150,-94.5133,0.0,1.6,216.0,3.2,'11111222,11111222,11111222' 
TCOON,ioos:station:TCOON:518:1,2019-09-06T06:48:00Z,29.5150,-94.5133,0.0,2.6,237.0,3.5,'11111222,11111222,11111222' 
TCOON,ioos:station:TCOON:518:1,2019-09-06T07:42:00Z,29.5150,-94.5133,0.0,2.4,252.0,3.3,'11111222,11111222,11111222' 
TCOON,ioos:station:TCOON:518:1,2019-09-06T08:24:00Z,29.5150,-94.5133,0.0,2.0,274.0,3.0,'11111222,11111222,11111222' 
TCOON,ioos:station:TCOON:518:1,2019-09-06T09:24:00Z,29.5150,-94.5133,0.0,2.3,275.0,3.8,'11111222,11111222,11111222' 
TCOON,ioos:station:TCOON:518:1,2019-09-06T10:24:00Z,29.5150,-94.5133,0.0,1.8,284.0,2.5,'11111222,11111222,11111222' 
TCOON,ioos:station:TCOON:518:1,2019-09-06T11:24:00Z,29.5150,-94.5133,0.0,3.4,299.0,4.8,'11111222,11111222,11111222' 
TCOON,ioos:station:TCOON:518:1,2019-09-06T12:30:00Z,29.5150,-94.5133,0.0,2.4,5.0,3.3,'11111222,11111222,11111222' 
TCOON,ioos:station:TCOON:518:1,2019-09-06T13:24:00Z,29.5150,-94.5133,0.0,2.5,22.0,3.3,'11111222,11111222,11111222' 
TCOON,ioos:station:TCOON:518:1,2019-09-06T14:24:00Z,29.5150,-94.5133,0.0,2.8,329.0,3.6,'11111222,11111222,11111222' 
TCOON,ioos:station:TCOON:518:1,2019-09-06T15:24:00Z,29.5150,-94.5133,0.0,2.2,326.0,3.0,'11111222,11111222,11111222' 
TCOON,ioos:station:TCOON:518:1,2019-09-06T16:30:00Z,29.5150,-94.5133,0.0,3.4,313.0,4.6,'11111222,11111222,11111222' 
TCOON,ioos:station:TCOON:518:1,2019-09-06T17:30:00Z,29.5150,-94.5133,0.0,2.5,292.0,3.7,'11111222,11111222,11111222' 
TCOON,ioos:station:TCOON:518:1,2019-09-06T18:30:00Z,29.5150,-94.5133,0.0,0.9,1.0,1.7,'11111222,11111222,11111222' 
TCOON,ioos:station:TCOON:518:1,2019-09-06T19:24:00Z,29.5150,-94.5133,0.0,2.5,210.0,4.4,'11111222,11111222,11111222' 
TCOON,ioos:station:TCOON:518:1,2019-09-06T20:24:00Z,29.5150,-94.5133,0.0,3.0,216.0,5.1,'11111222,11111222,11111222' 
TCOON,ioos:station:TCOON:518:1,2019-09-06T21:24:00Z,29.5150,-94.5133,0.0,2.6,205.0,5.0,'11111222,11111222,11111222' 
TCOON,ioos:station:TCOON:518:1,2019-09-06T22:24:00Z,29.5150,-94.5133,0.0,2.0,212.0,3.7,'11111222,11111222,11111222' 
TCOON,ioos:station:TCOON:518:1,2019-09-06T23:24:00Z,29.5150,-94.5133,0.0,2.3,210.0,4.3,'11111222,11111222,11111222' 
TCOON,ioos:station:TCOON:518:1,2019-09-07T00:24:00Z,29.5150,-94.5133,0.0,2.1,223.0,3.3,'11111222,11111222,11111222' 
TCOON,ioos:station:TCOON:518:1,2019-09-07T01:24:00Z,29.5150,-94.5133,0.0,1.1,224.0,3.0,'11111222,11111222,11111222' 
TCOON,ioos:station:TCOON:518:1,2019-09-07T02:24:00Z,29.5150,-94.5133,0.0,1.2,232.0,2.3,'11111222,11111222,11111222' 
TCOON,ioos:station:TCOON:518:1,2019-09-07T03:24:00Z,29.5150,-94.5133,0.0,2.2,244.0,3.2,'11111222,11111222,11111222' 
TCOON,ioos:station:TCOON:518:1,2019-09-07T04:24:00Z,29.5150,-94.5133,0.0,1.8,235.0,2.9,'11111222,11111222,11111222' 
TCOON,ioos:station:TCOON:518:1,2019-09-07T05:24:00Z,29.5150,-94.5133,0.0,1.7,222.0,4.0,'11111222,11111222,11111222' 
TCOON,ioos:station:TCOON:518:1,2019-09-07T06:24:00Z,29.5150,-94.5133,0.0,3.0,237.0,4.0,'11111222,11111222,11111222' 
TCOON,ioos:station:TCOON:518:1,2019-09-07T07:24:00Z,29.5150,-94.5133,0.0,2.1,244.0,2.9,'11111222,11111222,11111222' 
TCOON,ioos:station:TCOON:518:1,2019-09-07T08:24:00Z,29.5150,-94.5133,0.0,1.6,270.0,2.3,'11111222,11111222,11111222' 
TCOON,ioos:station:TCOON:518:1,2019-09-07T09:24:00Z,29.5150,-94.5133,0.0,1.0,272.0,1.6,'11111222,11111222,11111222' 
TCOON,ioos:station:TCOON:518:1,2019-09-07T10:24:00Z,29.5150,-94.5133,0.0,2.4,262.0,3.2,'11111222,11111222,11111222' 
TCOON,ioos:station:TCOON:518:1,2019-09-07T11:24:00Z,29.5150,-94.5133,0.0,3.5,295.0,4.8,'11111222,11111222,11111222' 
TCOON,ioos:station:TCOON:518:1,2019-09-07T12:24:00Z,29.5150,-94.5133,0.0,2.1,289.0,3.3,'11111222,11111222,11111222' 
TCOON,ioos:station:TCOON:518:1,2019-09-07T13:24:00Z,29.5150,-94.5133,0.0,2.6,288.0,4.0,'11111222,11111222,11111222' 
TCOON,ioos:station:TCOON:518:1,2019-09-07T14:24:00Z,29.5150,-94.5133,0.0,3.9,292.0,4.8,'11111222,11111222,11111222' 
TCOON,ioos:station:TCOON:518:1,2019-09-07T15:24:00Z,29.5150,-94.5133,0.0,3.2,294.0,4.6,'11111222,11111222,11111222' 
TCOON,ioos:station:TCOON:518:1,2019-09-07T16:24:00Z,29.5150,-94.5133,0.0,3.0,314.0,3.6,'11111222,11111222,11111222' 
TCOON,ioos:station:TCOON:518:1,2019-09-07T17:24:00Z,29.5150,-94.5133,0.0,1.9,348.0,3.3,'11111222,11111222,11111222' 
TCOON,ioos:station:TCOON:518:1,2019-09-07T18:24:00Z,29.5150,-94.5133,0.0,1.1,330.0,2.3,'11111222,11111222,11111222' 
TCOON,ioos:station:TCOON:518:1,2019-09-07T19:24:00Z,29.5150,-94.5133,0.0,2.9,172.0,5.1,'11111222,11111222,11111222' 
TCOON,ioos:station:TCOON:518:1,2019-09-07T20:24:00Z,29.5150,-94.5133,0.0,3.5,193.0,5.1,'11111222,11111222,11111222' 
TCOON,ioos:station:TCOON:518:1,2019-09-07T21:24:00Z,29.5150,-94.5133,0.0,3.2,192.0,5.1,'11111222,11111222,11111222' 
TCOON,ioos:station:TCOON:518:1,2019-09-07T22:24:00Z,29.5150,-94.5133,0.0,4.4,168.0,5.2,'11111222,11111222,11111222' 
TCOON,ioos:station:TCOON:518:1,2019-09-07T23:24:00Z,29.5150,-94.5133,0.0,4.1,158.0,5.3,'11111222,11111222,11111222' 
TCOON,ioos:station:TCOON:518:1,2019-09-08T00:24:00Z,29.5150,-94.5133,0.0,4.1,172.0,5.4,'11111222,11111222,11111222' 
TCOON,ioos:station:TCOON:518:1,2019-09-08T01:24:00Z,29.5150,-94.5133,0.0,2.6,172.0,4.7,'11111222,11111222,11111222' 
TCOON,ioos:station:TCOON:518:1,2019-09-08T02:24:00Z,29.5150,-94.5133,0.0,3.1,188.0,4.1,'11111222,11111222,11111222' 
TCOON,ioos:station:TCOON:518:1,2019-09-08T03:24:00Z,29.5150,-94.5133,0.0,3.4,186.0,4.8,'11111222,11111222,11111222' 
TCOON,ioos:station:TCOON:518:1,2019-09-08T04:24:00Z,29.5150,-94.5133,0.0,2.5,210.0,4.2,'11111222,11111222,11111222' 
TCOON,ioos:station:TCOON:518:1,2019-09-08T05:24:00Z,29.5150,-94.5133,0.0,2.6,209.0,4.1,'11111222,11111222,11111222' 
TCOON,ioos:station:TCOON:518:1,2019-09-08T06:24:00Z,29.5150,-94.5133,0.0,1.8,225.0,4.2,'11111222,11111222,11111222' 
TCOON,ioos:station:TCOON:518:1,2019-09-08T07:24:00Z,29.5150,-94.5133,0.0,2.8,242.0,4.2,'11111222,11111222,11111222' 
TCOON,ioos:station:TCOON:518:1,2019-09-08T08:24:00Z,29.5150,-94.5133,0.0,2.0,262.0,3.0,'11111222,11111222,11111222' 
TCOON,ioos:station:TCOON:518:1,2019-09-08T09:24:00Z,29.5150,-94.5133,0.0,1.7,250.0,2.2,'11111222,11111222,11111222' 
TCOON,ioos:station:TCOON:518:1,2019-09-08T10:24:00Z,29.5150,-94.5133,0.0,1.5,267.0,2.2,'11111222,11111222,11111222' 
TCOON,ioos:station:TCOON:518:1,2019-09-08T11:24:00Z,29.5150,-94.5133,0.0,1.6,252.0,2.2,'11111222,11111222,11111222' 
TCOON,ioos:station:TCOON:518:1,2019-09-08T12:24:00Z,29.5150,-94.5133,0.0,1.0,263.0,1.8,'11111222,11111222,11111222' 
TCOON,ioos:station:TCOON:518:1,2019-09-08T13:24:00Z,29.5150,-94.5133,0.0,2.1,289.0,3.4,'11111222,11111222,11111222' 
TCOON,ioos:station:TCOON:518:1,2019-09-08T14:24:00Z,29.5150,-94.5133,0.0,2.6,269.0,3.0,'11111222,11111222,11111222' 
TCOON,ioos:station:TCOON:518:1,2019-09-08T15:24:00Z,29.5150,-94.5133,0.0,1.2,203.0,2.7,'11111222,11111222,11111222' 
TCOON,ioos:station:TCOON:518:1,2019-09-08T16:24:00Z,29.5150,-94.5133,0.0,3.0,167.0,3.9,'11111222,11111222,11111222' 
TCOON,ioos:station:TCOON:518:1,2019-09-08T17:24:00Z,29.5150,-94.5133,0.0,1.8,187.0,4.0,'11111222,11111222,11111222' 
TCOON,ioos:station:TCOON:518:1,2019-09-08T18:24:00Z,29.5150,-94.5133,0.0,4.0,163.0,5.2,'11111222,11111222,11111222' 
TCOON,ioos:station:TCOON:518:1,2019-09-08T19:24:00Z,29.5150,-94.5133,0.0,2.7,189.0,5.0,'11111222,11111222,11111222' 
TCOON,ioos:station:TCOON:518:1,2019-09-08T20:24:00Z,29.5150,-94.5133,0.0,2.7,194.0,4.8,'11111222,11111222,11111222' 
TCOON,ioos:station:TCOON:518:1,2019-09-08T21:24:00Z,29.5150,-94.5133,0.0,2.0,181.0,3.9,'11111222,11111222,11111222' 
TCOON,ioos:station:TCOON:518:1,2019-09-08T22:24:00Z,29.5150,-94.5133,0.0,3.7,180.0,5.1,'11111222,11111222,11111222' 
TCOON,ioos:station:TCOON:518:1,2019-09-08T23:24:00Z,29.5150,-94.5133,0.0,3.2,182.0,5.4,'11111222,11111222,11111222' 
TCOON,ioos:station:TCOON:518:1,2019-09-09T00:24:00Z,29.5150,-94.5133,0.0,2.3,190.0,4.4,'11111222,11111222,11111222' 
TCOON,ioos:station:TCOON:518:1,2019-09-09T01:24:00Z,29.5150,-94.5133,0.0,2.8,199.0,4.2,'11111222,11111222,11111222' 
TCOON,ioos:station:TCOON:518:1,2019-09-09T02:24:00Z,29.5150,-94.5133,0.0,2.5,190.0,4.7,'11111222,11111222,11111222' 
TCOON,ioos:station:TCOON:518:1,2019-09-09T03:24:00Z,29.5150,-94.5133,0.0,3.0,175.0,4.0,'11111222,11111222,11111222' 
TCOON,ioos:station:TCOON:518:1,2019-09-09T04:24:00Z,29.5150,-94.5133,0.0,2.7,182.0,4.1,'11111222,11111222,11111222' 
TCOON,ioos:station:TCOON:518:1,2019-09-09T05:24:00Z,29.5150,-94.5133,0.0,3.2,191.0,5.1,'11111222,11111222,11111222' 
TCOON,ioos:station:TCOON:518:1,2019-09-09T06:24:00Z,29.5150,-94.5133,0.0,2.9,185.0,4.4,'11111222,11111222,11111222' 
TCOON,ioos:station:TCOON:518:1,2019-09-09T07:24:00Z,29.5150,-94.5133,0.0,3.2,181.0,4.9,'11111222,11111222,11111222' 
TCOON,ioos:station:TCOON:518:1,2019-09-09T08:24:00Z,29.5150,-94.5133,0.0,2.7,184.0,5.4,'11111222,11111222,11111222' 
TCOON,ioos:station:TCOON:518:1,2019-09-09T09:24:00Z,29.5150,-94.5133,0.0,5.5,176.0,7.2,'11111222,11111222,11111222' 
TCOON,ioos:station:TCOON:518:1,2019-09-09T10:24:00Z,29.5150,-94.5133,0.0,2.7,193.0,3.7,'11111222,11111222,11111222' 
TCOON,ioos:station:TCOON:518:1,2019-09-09T11:24:00Z,29.5150,-94.5133,0.0,1.8,198.0,2.6,'11111222,11111222,11111222' 
TCOON,ioos:station:TCOON:518:1,2019-09-09T12:24:00Z,29.5150,-94.5133,0.0,1.9,189.0,2.8,'11111222,11111222,11111222' 
TCOON,ioos:station:TCOON:518:1,2019-09-09T13:24:00Z,29.5150,-94.5133,0.0,1.5,170.0,1.9,'11111222,11111222,11111222' 
TCOON,ioos:station:TCOON:518:1,2019-09-09T14:42:00Z,29.5150,-94.5133,0.0,3.1,145.0,3.6,'11111222,11111222,11111222' 